This is the latest recevied weather packets stored in our database for station/object KO6SRA-13. If no packets are shown the sender has not sent any weather packets the latest 10 day(s).
| Time | Temp. | Humidity | Pressure | Rain* | Wind** | Luminosity | Snow |
|---|---|---|---|---|---|---|---|
| 1787428436 | 21.67° C | 67% | 1019 hPa | 0 mm | - | 738 W/m² | - |
| 1787428136 | 21.67° C | 66% | 1019.2 hPa | 0 mm | - | 753 W/m² | - |
| 1787427831 | 21.11° C | 68% | 1019.1 hPa | 0 mm | - | 758 W/m² | - |
| 1787427527 | 20.56° C | 70% | 1019 hPa | 0 mm | - | 746 W/m² | - |
| 1787427223 | 21.11° C | 69% | 1019.3 hPa | 0 mm | - | 752 W/m² | - |
| 1787426919 | 21.11° C | 70% | 1019.4 hPa | 0 mm | - | 777 W/m² | - |
| 1787426619 | 20.56° C | 71% | 1019.3 hPa | 0 mm | - | 757 W/m² | - |
| 1787426315 | 20.56° C | 72% | 1019.2 hPa | 0 mm | - | 719 W/m² | - |
| 1787426012 | 21.11° C | 72% | 1019.2 hPa | 0 mm | - | 686 W/m² | - |
| 1787425707 | 20.56° C | 73% | 1019.3 hPa | 0 mm | - | 616 W/m² | - |
| 1787425404 | 21.11° C | 72% | 1019.3 hPa | 0 mm | - | 650 W/m² | - |
| 1787425104 | 21.11° C | 72% | 1019.7 hPa | 0 mm | - | 753 W/m² | - |
| 1787424803 | 20.56° C | 74% | 1019.6 hPa | 0 mm | - | 832 W/m² | - |
| 1787424498 | 20.56° C | 72% | 1019.7 hPa | 0 mm | - | 840 W/m² | - |
| 1787424194 | 20.56° C | 74% | 1019.5 hPa | 0 mm | - | 855 W/m² | - |
| 1787423889 | 20.56° C | 74% | 1019.6 hPa | 0 mm | - | 858 W/m² | - |
| 1787423587 | 20.56° C | 74% | 1019.6 hPa | 0 mm | - | 848 W/m² | - |
| 1787423286 | 20.56° C | 74% | 1019.8 hPa | 0 mm | - | 822 W/m² | - |
| 1787422983 | 20.56° C | 74% | 1019.8 hPa | 0 mm | - | 785 W/m² | - |
| 1787422678 | 20.56° C | 75% | 1019.9 hPa | 0 mm | - | 781 W/m² | - |
| 1787422374 | 20° C | 76% | 1019.8 hPa | 0 mm | - | 786 W/m² | - |
| 1787422070 | 20.56° C | 74% | 1019.8 hPa | 0 mm | - | 792 W/m² | - |
| 1787421766 | 20.56° C | 73% | 1019.9 hPa | 0 mm | - | 776 W/m² | - |
| 1787421461 | 20.56° C | 74% | 1019.7 hPa | 0 mm | - | 750 W/m² | - |
| 1787421156 | 20.56° C | 74% | 1019.7 hPa | 0 mm | - | 750 W/m² | - |
* Rain latest hour (hover to see other rain measurements)
** Current wind speed in m/s (hover to see current wind gust speed)